This demonstration page uses our WeatherBlox Daily Observations layout. Learn more.

Left ArrowRight Arrow

Hourly Observations for June 15, 2019

Temp ( °F °C ) Dew Point ( °F °C ) Humidity (%) Winds ( mph kmh ) Pressure ( in mb ) Visibility ( mi km ) Precip ( " mm )
12:56 am 00:56 Mostly Cloudy 75 24 61 16 61 61 SW 5 7 29.62 1003 10 16 0.00 0.00
1:56 am 01:56 Partly Cloudy 73 23 64 18 74 74 S 7 11 29.60 1002 10 16 0.00 0.00
2:56 am 02:56 Partly Cloudy 70 21 64 18 83 83 WNW 6 9 29.58 1002 10 16 0.00 0.00
3:56 am 03:56 Cloudy 70 21 63 17 78 78 NNW 5 7 29.57 1001 10 16 0.00 0.00
4:56 am 04:56 Mostly Clear 70 21 63 17 78 78 Calm 29.57 1001 10 16 0.00 0.00
5:56 am 05:56 undefined N/A N/A N/A ESE 3 6 N/A N/A 0.00 0.00
6:56 am 06:56 Partly Cloudy 70 21 63 17 78 78 ESE 3 6 29.58 1002 7 11 0.00 0.00
7:56 am 07:56 Mostly Cloudy 70 21 63 17 78 78 SSE 8 13 29.62 1003 7 11 0.00 0.00
8:56 am 08:56 Mostly Cloudy 73 23 64 18 74 74 S 5 7 29.62 1003 7 11 0.00 0.00
9:56 am 09:56 Mostly Cloudy 77 25 64 18 65 65 WSW 6 9 29.63 1004 7 11 0.00 0.00
10:56 am 10:56 Mostly Cloudy 84 29 66 19 55 55 W 5 7 29.64 1004 7 11 0.00 0.00
11:56 am 11:56 Mostly Cloudy 81 27 66 19 62 62 W 9 15 29.65 1004 7 11 0.00 0.00
12:54 pm 12:54 Cloudy with Light Showers 81 27 66 19 62 62 undefined N/A 29.66 1004 6 10 0.00 0.00
12:57 pm 12:57 Cloudy 81 27 68 20 66 66 W 7 11 29.65 1004 7 11 0.00 0.03
1:56 pm 13:56 Mostly Cloudy 77 25 64 18 65 65 NW 7 11 29.67 1005 7 11 0.00 0.00
2:56 pm 14:56 Mostly Cloudy 75 24 63 17 65 65 W 8 13 29.68 1005 10 16 0.00 0.00
3:56 pm 15:56 Mostly Sunny 84 29 63 17 48 48 W 14 22 29.65 1004 10 16 0.00 0.00
4:56 pm 16:56 Sunny 84 29 59 15 43 43 W 9 15 29.65 1004 10 16 0.00 0.00
5:56 pm 17:56 Mostly Sunny 88 31 59 15 38 38 W 7 11 29.68 1005 10 16 0.00 0.00
6:56 pm 18:56 Sunny 86 30 54 12 33 33 WNW 13 20 29.67 1005 10 16 0.00 0.00
7:56 pm 19:56 Sunny 84 29 54 12 35 35 NW 9 15 29.67 1005 10 16 0.00 0.00
8:56 pm 20:56 Mostly Sunny 81 27 57 14 45 45 NW 5 7 29.68 1005 10 16 0.00 0.00
9:56 pm 21:56 Clear 79 26 55 13 45 45 NNW 8 13 29.70 1006 10 16 0.00 0.00
10:56 pm 22:56 Clear 77 25 54 12 44 44 NNW 7 11 29.71 1006 10 16 0.00 0.00
11:56 pm 23:56 Mostly Clear 73 23 54 12 50 50 W 3 6 29.72 1006 10 16 0.00 0.00

Powered by AerisWeather